Location: Oshawa
(43.9000°N, 78.8670°W)
Time: 07:14:00
(UTC-05:00)

Altair - Visible Passes

Search period start: 20 December 2014 00:00
Search period end: 30 December 2014 00:00
Orbit: 1501 x 1683 km, 47.2° (Epoch: 18 December)

Date Brightness Start Highest point End Pass type
(mag) Time Alt. Az. Time Alt. Az. Time Alt. Az.
20 Dec 7.9 18:17:32 10° WNW 18:26:28 60° SW 18:35:28 10° SE visible
20 Dec 9.3 20:23:48 10° W 20:29:42 19° SW 20:35:41 10° SSW visible
21 Dec 7.9 17:52:23 10° WNW 18:01:23 64° SSW 18:10:26 10° SE visible
21 Dec 9.3 19:58:22 10° W 20:04:43 21° SW 20:11:08 10° S visible
22 Dec 7.8 17:27:13 10° WNW 17:36:18 68° SSW 17:45:23 10° SE visible
22 Dec 9.2 19:32:59 10° W 19:39:43 24° SW 19:46:32 10° S visible
23 Dec 7.8 17:02:04 10° WNW 17:11:12 71° SSW 17:20:19 10° SE visible
23 Dec 9.2 19:07:38 10° W 19:14:43 26° SW 19:21:52 10° S visible
24 Dec 9.2 18:42:20 10° WNW 18:49:43 28° SW 18:57:09 10° S visible
25 Dec 9.1 18:17:03 10° WNW 18:24:42 31° SW 18:32:23 10° S visible
26 Dec 9.1 17:51:48 10° WNW 17:59:41 34° SW 18:07:35 10° SSE visible
27 Dec 9.0 17:26:33 10° WNW 17:34:39 37° SW 17:42:45 10° SSE visible
28 Dec 9.0 17:01:20 10° WNW 17:09:37 40° SW 17:17:53 10° SSE visible
